Location: Carnières
(50.1682°N, 3.3474°E)
Time: 14:13:18
(UTC+00:00)

MOZ.5/SAFIR/RUBIN 5/SL-8 - Pass Details

Date: 10 August 2024
Orbit: 671 x 698 km, 98.3° (Epoch: 14 September)

Event Time Altitude Azimuth Distance (km) Brightness Sun altitude
Exits shadow 23:24:24 - 90° (E) 2,411 6.5 -24.4°
Reaches altitude 10° 23:25:38 10° 78° (ENE) 2,155 6.4 -24.4°
Maximum altitude 23:27:37 13° 53° (NE) 1,985 6.5 -24.4°
Drops below altitude 10° 23:29:36 10° 28° (NNE) 2,166 7.1 -24.5°
Sets 23:33:08 0° 0° (N) 3,094 8.5 -24.5°
